Date String (YYYY-MM-DD hh:mm:ss) UTC,Instrument flags,Ambient pressure (hPa),Sample flow (lpm),Bypass flow (lpm),Sample temperature (°C),Ambient temperature (°C),ASC tube jacket temperature (°C),LED temperature (°C),Box temperature (°C),Sample RH (%),Span deviation,Mass concentration (μg/m³),Mass concentration (μg/m³),Mass concentration (μg/m³)
DateTimeUTC,F1_M11,P_M11,Q1_M11,Q2_M11,T1_M11,T2_M11,T3_M11,T4_M11,T5_M11,U1_M11,ZSPAN_M11,X2_M11,X0_M11,X1_M11
2022-12-11 15:00:00,,0820.9,4.98,0.00,21.8,20.1,00.0,30.7,23.5,06.3,0000.0,0001.22,0002.03,0000.85
2022-12-11 15:01:00,,0820.9,5.02,0.00,21.7,20.1,00.0,30.7,23.5,06.3,0000.0,0001.20,0001.97,0000.84
2022-12-11 15:02:00,,0820.9,4.99,0.00,21.7,20.1,00.0,30.7,23.5,06.4,0000.0,0001.16,0001.85,0000.83
2022-12-11 15:03:00,,0820.9,5.01,0.00,21.7,20.1,00.0,30.7,23.5,06.4,0000.0,0001.15,0001.79,0000.83
2022-12-11 15:04:00,,0820.9,5.00,0.00,21.7,20.1,00.0,30.6,23.5,08.5,0000.0,0001.47,0002.48,0001.03
2022-12-11 15:05:00,,0820.9,4.99,0.00,21.7,20.2,00.0,30.6,23.5,07.9,0000.0,0001.87,0003.26,0001.33
2022-12-11 15:06:00,,0820.9,5.02,0.00,21.7,20.3,00.0,30.6,23.6,07.3,0000.0,0001.98,0003.51,0001.44
2022-12-11 15:07:00,,0820.9,4.98,0.00,21.7,20.4,00.0,30.6,23.6,07.2,0000.0,0002.08,0003.77,0001.47
2022-12-11 15:08:00,,0820.9,5.01,0.00,21.7,20.4,00.0,30.6,23.6,07.1,0000.0,0002.16,0005.24,0001.55
2022-12-11 15:09:00,,0820.9,4.99,0.00,21.8,20.5,00.0,30.6,23.6,07.2,0000.0,0002.32,0006.06,0001.68
2022-12-11 15:10:00,,0820.9,4.98,0.00,21.8,20.5,00.0,30.6,23.6,07.2,0000.0,0002.46,0006.25,0001.82
2022-12-11 15:11:00,,0820.9,5.02,0.00,21.8,20.5,00.0,30.6,23.6,07.0,0000.0,0002.57,0006.45,0001.88
2022-12-11 15:12:00,,0820.9,5.00,0.00,21.8,20.6,00.0,30.6,23.7,06.8,0000.0,0002.64,0006.66,0001.91
2022-12-11 15:13:00,,0820.9,4.98,0.00,21.8,20.6,00.0,30.6,23.7,06.7,0000.0,0002.64,0006.73,0001.91
2022-12-11 15:14:00,,0821.0,5.02,0.00,21.8,20.6,00.0,30.6,23.7,06.5,0000.0,0002.60,0006.65,0001.90
2022-12-11 15:15:00,,0821.0,5.00,0.00,21.8,20.7,00.0,30.6,23.7,06.5,0000.0,0002.22,0005.88,0001.66
2022-12-11 15:16:00,,0821.0,4.99,0.00,21.8,20.7,00.0,30.7,23.7,06.5,0000.0,0001.86,0005.27,0001.37
2022-12-11 15:17:00,,0821.0,5.01,0.00,21.9,20.7,00.0,30.7,23.8,06.6,0000.0,0001.71,0004.99,0001.24
2022-12-11 15:18:00,,0821.0,5.01,0.00,21.9,20.7,00.0,30.7,23.8,07.6,0000.0,0001.55,0004.66,0001.17
2022-12-11 15:19:00,,0821.0,4.98,0.00,21.9,20.7,00.0,30.7,23.8,08.3,0000.0,0001.75,0003.49,0001.32
2022-12-11 15:20:00,,0821.0,5.00,0.00,21.9,20.8,00.0,30.7,23.8,08.0,0000.0,0001.87,0003.41,0001.42
2022-12-11 15:21:00,,0821.0,5.02,0.00,21.9,20.8,00.0,30.7,23.8,08.0,0000.0,0002.04,0004.33,0001.51
2022-12-11 15:22:00,,0821.0,4.99,0.00,21.9,20.8,00.0,30.7,23.9,07.7,0000.0,0002.18,0005.41,0001.61
2022-12-11 15:23:00,,0821.0,5.00,0.00,22.0,20.9,00.0,30.7,23.9,07.6,0000.0,0002.32,0005.76,0001.73
2022-12-11 15:24:00,,0821.0,5.01,0.00,22.0,20.9,00.0,30.7,23.9,07.6,0000.0,0002.52,0006.39,0001.87
2022-12-11 15:25:00,,0821.0,4.98,0.00,22.0,20.9,00.0,30.7,23.9,08.8,0000.0,0002.80,0006.91,0002.10
2022-12-11 15:26:00,,0821.0,5.00,0.00,22.0,20.9,00.0,30.8,23.9,10.0,0000.0,0003.27,0008.86,0002.56
2022-12-11 15:27:00,,0821.0,5.02,0.00,22.0,20.9,00.0,30.8,23.9,10.3,0000.0,0003.76,0011.14,0003.11
2022-12-11 15:28:00,,0820.9,4.98,0.00,22.0,20.9,00.0,30.8,23.9,09.1,0000.0,0004.09,0012.26,0003.39
2022-12-11 15:29:00,,0820.9,4.99,0.00,22.0,20.9,00.0,30.8,24.0,08.1,0000.0,0004.21,0012.55,0003.49
2022-12-11 15:30:00,,0820.9,5.03,0.00,22.1,20.9,00.0,30.8,24.0,07.8,0000.0,0004.12,0012.34,0003.42
2022-12-11 15:31:00,,0821.0,4.99,0.00,22.1,21.0,00.0,30.8,23.9,08.1,0000.0,0004.06,0012.11,0003.38
2022-12-11 15:32:00,,0820.9,4.98,0.00,22.1,21.0,00.0,30.8,23.9,08.5,0000.0,0004.06,0011.87,0003.39
2022-12-11 15:33:00,,0820.9,5.02,0.00,22.1,21.0,00.0,30.8,24.0,08.8,0000.0,0004.15,0012.17,0003.47
2022-12-11 15:34:00,,0820.9,5.00,0.00,22.1,21.0,00.0,30.9,24.0,09.2,0000.0,0004.31,0012.31,0003.58
2022-12-11 15:35:00,,0820.9,4.98,0.00,22.1,21.0,00.0,30.9,24.0,09.1,0000.0,0004.46,0012.90,0003.69
2022-12-11 15:36:00,,0820.9,5.00,0.00,22.2,21.1,00.0,30.9,24.0,09.5,0000.0,0004.58,0013.84,0003.77
2022-12-11 15:37:00,,0821.0,5.03,0.00,22.2,21.1,00.0,30.9,24.0,10.1,0000.0,0004.57,0013.10,0003.76
2022-12-11 15:38:00,,0820.9,4.99,0.00,22.2,21.1,00.0,30.9,24.0,10.3,0000.0,0004.46,0011.80,0003.70
2022-12-11 15:39:00,,0820.9,4.99,0.00,22.2,21.1,00.0,30.9,24.1,10.2,0000.0,0004.50,0011.69,0003.68
2022-12-11 15:40:00,,0820.9,5.03,0.00,22.2,21.1,00.0,30.9,24.1,09.9,0000.0,0004.61,0011.73,0003.75
2022-12-11 15:41:00,,0820.9,4.99,0.00,22.3,21.2,00.0,31.0,24.1,09.7,0000.0,0004.77,0012.32,0003.85
2022-12-11 15:42:00,,0820.9,4.99,0.00,22.3,21.2,00.0,31.0,24.2,10.1,0000.0,0004.92,0012.73,0003.94
2022-12-11 15:43:00,,0821.0,5.03,0.00,22.3,21.2,00.0,31.0,24.2,10.5,0000.0,0005.07,0013.33,0004.02
2022-12-11 15:44:00,,0821.0,4.99,0.00,22.3,21.2,00.0,31.0,24.2,10.5,0000.0,0005.21,0013.62,0004.13
2022-12-11 15:45:00,,0821.0,4.99,0.00,22.3,21.2,00.0,31.0,24.2,10.4,0000.0,0005.37,0014.37,0004.22
2022-12-11 15:46:00,,0820.9,5.03,0.00,22.4,21.2,00.0,31.0,24.2,10.1,0000.0,0005.42,0014.80,0004.25
2022-12-11 15:47:00,,0820.9,4.97,0.00,22.4,21.3,00.0,31.1,24.2,09.3,0000.0,0005.35,0014.13,0004.20
2022-12-11 15:48:00,,0820.9,5.02,0.00,22.4,21.2,00.0,31.1,24.2,09.2,0000.0,0005.18,0013.28,0004.07
2022-12-11 15:49:00,,0820.9,5.00,0.00,22.4,21.2,00.0,31.1,24.2,08.7,0000.0,0004.92,0012.49,0003.90
2022-12-11 15:50:00,,0820.8,4.99,0.00,22.4,21.2,00.0,31.1,24.2,07.8,0000.0,0004.66,0011.68,0003.73
2022-12-11 15:51:00,,0820.8,5.00,0.00,22.4,21.2,00.0,31.1,24.2,07.7,0000.0,0004.44,0011.31,0003.57
2022-12-11 15:52:00,,0820.8,5.01,0.00,22.4,21.3,00.0,31.1,24.2,07.7,0000.0,0004.29,0010.75,0003.47
2022-12-11 15:53:00,,0820.8,4.99,0.00,22.4,21.3,00.0,31.1,24.3,07.7,0000.0,0004.13,0010.41,0003.37
2022-12-11 15:54:00,,0820.9,5.01,0.00,22.4,21.3,00.0,31.2,24.2,07.5,0000.0,0003.89,0009.65,0003.21
2022-12-11 15:55:00,,0820.9,5.01,0.00,22.4,21.3,00.0,31.2,24.3,07.8,0000.0,0003.61,0008.52,0002.92
2022-12-11 15:56:00,,0820.9,4.98,0.00,22.5,21.3,00.0,31.2,24.3,08.5,0000.0,0003.29,0007.32,0002.53
2022-12-11 15:57:00,,0820.9,5.00,0.00,22.5,21.4,00.0,31.2,24.3,10.3,0000.0,0003.20,0005.70,0002.40
2022-12-11 15:58:00,,0821.0,5.01,0.00,22.5,21.4,00.0,31.2,24.4,10.1,0000.0,0003.33,0006.06,0002.55
2022-12-11 15:59:00,,0820.9,4.98,0.00,22.5,21.4,00.0,31.2,24.4,09.4,0000.0,0003.37,0007.26,0002.59
